Location: Winthrop
(48.4780°N, 120.1850°W)
Time: 16:08:42
(UTC-07:00)

Explorer 7 - Pass Details

Date: 05 February 2023
Orbit: 478 x 657 km, 50.3° (Epoch: 30 March)

Event Time Altitude Azimuth Distance (km) Brightness Sun altitude
Rises 16:16:36 0° 289° (WNW) 2,821 11.1 6.4°
Reaches altitude 10° 16:18:53 10° 284° (WNW) 1,948 10.4 6.1°
Maximum altitude 16:23:13 50° 209° (SSW) 798 8.3 5.5°
Drops below altitude 10° 16:27:45 10° 135° (SE) 2,034 9.6 4.8°
Sets 16:30:10 0° 130° (SE) 2,959 10.3 4.5°
